Other Public Products
Issued by NWS Charleston, SC

Current Version | Previous Version | Graphics & Text | Print | Product List | Glossary On
Versions: 1 2 3 4 5 6 7 8 9 10 11 12 13 14 15 16 17 18 19 20 21 22 23 24 25 26 27 28 29 30 31 32 33 34 35 36 37 38 39 40 41 42 43 44 45 46 47 48 49 50
046
FPUS82 KCHS 200812
OPUCHS

TEST...KCHS/KSAV Gateway Observations...TEST
National Weather Service Charleston SC
300 AM EST TUE FEB 20 2018

NOTE: "fair" indicates few or no clouds below 12,000 feet with no
significant weather and/or obstructions to visibility.

SCZ050-WAZ558-NCZ071-TXZ119-213-PAZ071-DCZ001-FLZ074-172-MI076-
NYZ176-178-MAZ016-IL014-TNZ027-NJZ106-GAZ044-MD014-200900-

...Gateway Observations for Charleston International...

CITY           SKY/WX    TMP DP  RH WIND       PRES   REMARKS
Chas Airport   FOG       61  61 100 CALM      30.38F VSB 1/4
Seattle        CLOUDY    29  17  61 SE9       30.20F WCI  20
Charlotte      FOG       54  54 100 CALM      30.40S VSB 1/2
Dallas DFW     CLOUDY    74  66  76 S21G33    29.81S
Dallas Love    CLOUDY    72  66  81 S18G28    29.84R
Philladelphia  FOG       47  47 100 SW5       30.33F VSB 1/4
Wash National  CLOUDY    51  51 100 S13       30.33F FOG
Baltimore      CLOUDY    50  50 100 SW7       30.31S FOG
Miami          LGT RAIN  77  70  79 E15G25    30.23F
Detroit        HVY RAIN  54  53  97 CALM      29.98F VSB 1/2
Newark         FOG       47  47 100 SW8       30.30S VSB 1/4
Laguardia      CLOUDY    51  49  92 SW9       30.29F FOG
J F K          FOG       45  45 100 S3        30.31F VSB 1/4
Boston Logan   CLOUDY    53  51  93 SW14      30.23S
Ft. Lauderdale CLOUDY    77  71  82 E18G28    30.23F
Chicago O`Hare HVY RAIN  60  58  92 SW16      29.81R FOG
Chicago Midway LGT RAIN  59  59 100 S7        29.83F FOG
Houston Bush   MOCLDY    72  68  87 S15       29.98R
Houston Hobby  MOCLDY    70  69  97 SE12      29.97S
Nashville      FAIR      68  56  65 S16       30.17S
Atlanta        FAIR      59  59 100 E7        30.34R

$$

GAZ044-118-TXZ119-213-NCZ071-DCZ001-MDZ014-506-PAZ021-071-NJZ106-
NYZ176-178-MAZ106-OHZ011-021-055-MIZ076-KYZ091-ILZ014-INZ047-
MNZ060-ONZ431-200900-

...Gateway Observations for Savannah International...

CITY           SKY/WX    TMP DP  RH WIND       PRES   REMARKS
Savannah Arpt  FOG       60  60 100 NE3       30.36F VSB 1/4
Atlanta        FAIR      59  59 100 E7        30.34R
Charlotte      FOG       54  54 100 CALM      30.40S VSB 1/2
Dallas DFW     CLOUDY    74  66  76 S21G33    29.81S
Houston Bush   MOCLDY    72  68  87 S15       29.98R
Wash National  CLOUDY    51  51 100 S13       30.33F FOG
Wash Dulles    CLOUDY    50  50 100 S14       30.31S
Baltimore      CLOUDY    50  50 100 SW7       30.31S FOG
Philadelphia   FOG       47  47 100 SW5       30.33F VSB 1/4
Newark         FOG       47  47 100 SW8       30.30S VSB 1/4
Laguardia      CLOUDY    51  49  92 SW9       30.29F FOG
J F K          FOG       45  45 100 S3        30.31F VSB 1/4
Boston         CLOUDY    53  51  93 SW14      30.23S
Pittsburg      MOCLDY    63  52  67 SW10      30.14S
Akron          FAIR      61  51  70 SW17G24   30.10R
Cleveland      CLOUDY    63  54  72 S14G24    30.07R
Cincinnati     MOCLDY    62  57  83 S15       30.10S
Columbus       FAIR      59  54  83 S14       30.12R
Detroit        HVY RAIN  54  53  97 CALM      29.98F VSB 1/2
Chicago O`Hare HVY RAIN  60  58  92 SW16      29.81R FOG
Minneapolis    FRZ DRZL  20  19  96 NE9       29.85F WCI   9
Indianapolis   MOCLDY    65  57  75 S17G26    29.99S
Toronto Canada FOG       39  37  93 VRB2      30.00F VSB 1/8

$$




USA.gov is the U.S. government's official web portal to all federal, state and local government web resources and services.